User: anonymous   Login
Location: Caltech
(34.1382°N, 118.1253°W)
Time: 02:24:15
(UTC-07:00)
Language:

Cosmos 1939 Rocket - Orbit

View from above orbital plane
View from above orbital plane
View from above satellite
View from above satellite

Ground track
Ground track

The orbit data is extracted from the following two-line orbital elements,

1 19046U 88032B   15090.37562834  .00003276  00000-0  25801-3 0  9991
2 19046 097.6217 144.4386 0041866 202.1391 157.8027 15.00804946451251
Epoch (UTC): 31 March 2015 09:00:54
Eccentricity: 0.0041866
inclination: 97.6217°
perigee height: 535 km
apogee height: 593 km
right ascension of ascending node: 144.4386°
argument of perigee: 202.1391°
revolutions per day: 15.00804946
mean anomaly at epoch: 157.8027°
orbit number at epoch: 45125

The dashed part of the orbit path shows where the satellite is in the earth's shadow,  

DLR